TimeCDT,TemperatureF,Dew PointF,Humidity,Sea Level PressureIn,VisibilityMPH,Wind Direction,Wind SpeedMPH,Gust SpeedMPH,PrecipitationIn,Events,Conditions,WindDirDegrees,DateUTC
12:53 AM,66.0,59.0,78,30.18,10.0,SW,4.6,-,N/A,,Clear,230,2013-10-30 05:53:00
1:53 AM,62.1,57.9,86,30.17,10.0,SSW,6.9,-,N/A,,Clear,210,2013-10-30 06:53:00
2:53 AM,62.1,57.9,86,30.17,10.0,SSW,8.1,-,N/A,,Clear,200,2013-10-30 07:53:00
3:53 AM,62.1,57.9,86,30.18,10.0,SSW,5.8,-,N/A,,Clear,210,2013-10-30 08:53:00
4:53 AM,62.1,57.9,86,30.19,10.0,South,4.6,-,N/A,,Clear,190,2013-10-30 09:53:00
5:53 AM,62.1,57.9,86,30.19,10.0,South,5.8,-,N/A,,Clear,170,2013-10-30 10:53:00
6:53 AM,60.1,57.9,93,30.19,10.0,SSW,3.5,-,N/A,,Clear,210,2013-10-30 11:53:00
7:53 AM,61.0,57.9,90,30.22,7.0,Calm,Calm,-,N/A,,Mostly Cloudy,0,2013-10-30 12:53:00
8:53 AM,64.0,60.1,87,30.22,10.0,SSW,5.8,-,N/A,,Clear,200,2013-10-30 13:53:00
9:53 AM,68.0,61.0,78,30.23,10.0,SW,5.8,-,N/A,,Clear,220,2013-10-30 14:53:00
10:53 AM,73.0,62.1,68,30.22,10.0,SW,8.1,-,N/A,,Clear,230,2013-10-30 15:53:00
11:53 AM,77.0,62.1,60,30.20,10.0,SSW,10.4,21.9,N/A,,Partly Cloudy,210,2013-10-30 16:53:00
12:53 PM,79.0,60.1,52,30.16,10.0,South,10.4,-,N/A,,Clear,190,2013-10-30 17:53:00
1:53 PM,78.1,59.0,52,30.13,10.0,South,11.5,-,N/A,,Clear,190,2013-10-30 18:53:00
2:53 PM,75.9,57.9,54,30.11,10.0,SSW,11.5,-,N/A,,Clear,210,2013-10-30 19:53:00
3:53 PM,75.0,57.0,53,30.09,10.0,SSW,9.2,-,N/A,,Clear,200,2013-10-30 20:53:00
4:53 PM,73.0,57.0,57,30.07,10.0,SSW,8.1,-,N/A,,Clear,200,2013-10-30 21:53:00
5:53 PM,69.1,57.9,68,30.07,10.0,SSW,5.8,-,N/A,,Clear,210,2013-10-30 22:53:00
6:53 PM,70.0,59.0,68,30.06,10.0,South,4.6,-,N/A,,Clear,180,2013-10-30 23:53:00
7:53 PM,70.0,60.1,71,30.06,10.0,South,8.1,-,N/A,,Clear,180,2013-10-31 00:53:00
8:53 PM,70.0,60.1,71,30.05,10.0,South,9.2,-,N/A,,Mostly Cloudy,190,2013-10-31 01:53:00
9:53 PM,69.1,60.1,73,30.06,10.0,South,6.9,-,N/A,,Mostly Cloudy,190,2013-10-31 02:53:00
10:53 PM,69.1,60.1,73,30.05,10.0,South,8.1,-,N/A,,Partly Cloudy,190,2013-10-31 03:53:00
11:53 PM,69.1,60.1,73,30.02,10.0,South,10.4,-,N/A,,Clear,190,2013-10-31 04:53:00